STARLINK-4681 (53594 NORAD) Tracking and Keplerian Element Data

This shows tracking and keplerian element data for the satellite.

Feedback or suggestion? Click here.




ElementValue
Catalog53594
NameSTARLINK-4681
Epoch Orbit1309
Epoch Day325.25001157
Epoch Year2022
RAAN251.034
Inclination53.2171
Eccentricity0.0001771
Argument of Perigee53.9426
Mean Anonmoly22.1632
Mean Motion15.08793478
Decay Rate0.00053191
L11 53594U 22104G 22325.25001157 .00053191 00000+0 33393-2 0 9991
L22 53594 53.2171 251.0340 0001771 53.9426 22.1632 15.08793478 13098



Live tracking and technical data element details for STARLINK-4681 (NORAD 53594). STARLINK-4681 can be tracked NOW for your location showing map with azimuth and elevation plus other details from your city location.







IsCatalogInMostPopularTable: catalog: 53594, numindb: -1

Insert: records affected: 1


GetName: 53594 STARLINK-4681

Hit Count: inserted at: Thu, 08 Dec 2022 20:40:41 GMT